OIZC

Details ICAO OIZC (ZBR)
Name CHAH BAHAR
Region Iran
Timezone Asia/Tehran (UTC+4.5)
Plans Departing 14
Arriving 16
Stats Elevation 43 ft / 13 m (AMSL)
Location 25.443349° 60.382115°
Runways 2
Magnetic Variation 1.593° E
Sunrise 2017-06-26 01:10:57 UTC / 2017-06-26 05:40:57 Local
Sunset 2017-06-26 14:54:02 UTC / 2017-06-26 19:24:02 Local
Advertisement - Login to hide

Runways

ID Width Length Bearing (true) Bearing (mag) Surface Threshold Offset Overrun Length
09L 150 ft / 46 m 12,496 ft / 3,809 m 90.91° 89.32° Asphalt 0 ft / 0 m 1,181 ft / 360 m
09R 150 ft / 46 m 9,829 ft / 2,996 m 90.93° 89.34° Asphalt 0 ft / 0 m 1,181 ft / 360 m
27L 150 ft / 46 m 9,829 ft / 2,996 m 270.94° 269.35° Asphalt 0 ft / 0 m 1,181 ft / 360 m
27R 150 ft / 46 m 12,496 ft / 3,809 m 270.93° 269.34° Asphalt 0 ft / 0 m 1,181 ft / 360 m

Map

Weather


0- 5 10 15 20 25 30 35+ Temperature / ° C

Clouds and Precipitation
Forecast for 2017-06-26 12:00 UTC. Updated an hour ago

Ground ~20,000 ft ~40,000 ft Winds

METAR

OIZC 260700Z 14010KT 5000 HZ NSC 36/27 Q0998 A2949

TAF

TAF AMD OIZC 260600Z 2606/2712 14005MPS 4000 HZ FEW035 TEMPO 2610/2618 17008MPS 3000 SA FEW030CB SCT035 SCT100 BECMG 2618/2620 14003MPS 3000 BR SCT030 BECMG 2704/2706 22004MPS 4000 HZ NSC TEMPO 2708/2712 24008MPS 3000 SA

Frequencies

Tower 121.70 MHz TWR
Approach 134.10 MHz APP
Tower 125.20 MHz TWR
Warning: Do not use this data for real-world aviation or navigation. No guarantee of current accuracy is given.